Retour au catalogue

DELTA 1 DEB

ActifSSO
NORAD 21460·DEBRIS·🇺🇸 United States

Lancé Jun 12, 1975 depuis Vandenberg Space Force Base

Loading…

Prochains Passages (prochaines 24 heures)

TLE

FraisSource: Space-Track

Époque: Sep 14, 2026, 05:37 UTC

1 21460U 75052EU  26257.23455705  .00000054  00000-0  20547-3 0  9995
2 21460  99.7562 170.9649 0080879 197.7361 326.5427 13.28567064713591

Suivez DELTA 1 DEB en temps réel avec AllMySat

Download on the App Store